This is the latest recevied weather packets stored in our database for station/object N4AR. If no packets are shown the sender has not sent any weather packets the latest 10 day(s).
| Time | Temp. | Humidity | Pressure | Rain* | Wind** | Luminosity | Snow |
|---|---|---|---|---|---|---|---|
| 1777746656 | 15° C | 52% | 1012.3 hPa | 0 mm | - | 432 W/m² | - |
| 1777746351 | 15° C | 54% | 1012.6 hPa | 0 mm | - | 284 W/m² | - |
| 1777746047 | 15° C | 53% | 1012.5 hPa | 0 mm | - | 250 W/m² | - |
| 1777745746 | 15° C | 52% | 1012.7 hPa | 0 mm | - | 345 W/m² | - |
| 1777745444 | 15° C | 49% | 1012.7 hPa | 0 mm | - | 479 W/m² | - |
| 1777745140 | 15° C | 53% | 1012.6 hPa | 0 mm | - | 278 W/m² | - |
| 1777744832 | 14.44° C | 52% | 1012.9 hPa | 0 mm | - | 724 W/m² | - |
| 1777744531 | 14.44° C | 54% | 1012.8 hPa | 0 mm | - | 688 W/m² | - |
| 1777744228 | 13.89° C | 60% | 1013.3 hPa | 0 mm | - | 471 W/m² | - |
| 1777743925 | 13.89° C | 60% | 1013.4 hPa | 0 mm | - | 252 W/m² | - |
| 1777743621 | 13.89° C | 65% | 1013.7 hPa | 0 mm | - | 306 W/m² | - |
| 1777743319 | 13.33° C | 77% | 1013.8 hPa | 0 mm | - | 216 W/m² | - |
| 1777743017 | 13.33° C | 71% | 1013.8 hPa | 0 mm | - | 184 W/m² | - |
| 1777742714 | 13.33° C | 75% | 1013.9 hPa | 0 mm | - | 171 W/m² | - |
| 1777742410 | 13.33° C | 73% | 1014 hPa | 0 mm | - | 148 W/m² | - |
| 1777742105 | 13.33° C | 76% | 1014 hPa | 0 mm | - | 134 W/m² | - |
| 1777741803 | 12.78° C | 74% | 1013.9 hPa | 0 mm | - | 156 W/m² | - |
| 1777741500 | 12.78° C | 78% | 1014 hPa | 0 mm | - | 129 W/m² | - |
| 1777741196 | 12.78° C | 74% | 1014.3 hPa | 0 mm | - | 111 W/m² | - |
| 1777740893 | 12.78° C | 75% | 1014.3 hPa | 0 mm | - | 115 W/m² | - |
| 1777740590 | 12.78° C | 74% | 1014.1 hPa | 0 mm | - | 150 W/m² | - |
| 1777740286 | 12.78° C | 73% | 1013.9 hPa | 0 mm | - | 124 W/m² | - |
| 1777739983 | 12.78° C | 74% | 1013.9 hPa | 0 mm | - | 132 W/m² | - |
| 1777739679 | 12.78° C | 74% | 1013.9 hPa | 0 mm | - | 141 W/m² | - |
| 1777739377 | 12.78° C | 72% | 1014 hPa | 0 mm | - | 160 W/m² | - |
* Rain latest hour (hover to see other rain measurements)
** Current wind speed in m/s (hover to see current wind gust speed)